Meath Environmental Platform

Observations for Trim Market St

Time AQI Temp °C Hum % Pres Pa CO μg/m³ H₂S μg/m³ NO μg/m³ NO₂ μg/m³ O₃ μg/m³ SO₂ μg/m³ PM1 μg/m³ PM2.5 μg/m³ PM10 μg/m³
Saturday 11 July 2026
03:53 1 16.8 71 55,697 0.09 0 0 2.8 16.7 0 0.71 2.06 3.79
03:52 1 16.8 71 55,671 0.08 0 0 2.6 18.47 0 0.71 2.54 4.41
03:51 1 16.8 71 55,644 0.08 0 0 3.69 21.38 0 0 2.05 3.79
03:50 1 16.8 71 55,634 0.06 0 0.2 1.6 14.23 0 1.43 2.54 5.04
03:47 1 16.8 70 55,605 0.07 0 0 0.91 11.86 0 0.71 1.57 3.79
03:43 1 16.8 70 55,690 0.04 0 0 1.83 17.43 0 0.71 3.04 5.66
03:40 1 16.9 70 55,812 0.06 0 0 2.23 18.45 0 0 1.59 3.15
03:38 1 16.9 70 55,922 0.03 0 0 0 4.97 0 0 2.09 4.39
03:33 1 16.9 70 56,219 0.04 0 0 4.8 29.33 0 0 1.62 3.12
03:32 1 16.9 70 56,256 0.03 0 0 0.3 13.49 0 0 1.62 3.12
03:31 1 16.9 69 56,287 0.05 0 0.02 2.61 18.47 0 0 1.62 6.27
03:30 1 16.9 69 56,319 0.06 0 0 4.82 30.64 0 0 1.63 3.11
03:28 1 16.9 69 56,354 0.04 0 0 0 12.67 0 0 1.63 3.11
03:27 1 16.9 69 56,361 0.06 0 0 1.92 15.02 0 0 1.63 3.11
03:26 1 17 69 56,368 0.05 0 0 3.49 26.62 0 0 1.63 3.11
03:25 1 16.9 69 56,370 0.03 0 0 0 12.07 0 0 1.14 2.48
03:23 1 17 69 56,365 0.06 0 0 3 28.59 0 0 1.14 2.48
03:21 1 17 69 56,350 0.07 0 0 0 12.66 0 0 1.14 2.48
03:17 1 17.1 69 56,327 0.05 0 0 0.15 16.37 0 0 1.13 3.12
03:13 1 17.1 70 56,285 0.05 0 0 0 12.01 0 0 1.62 3.75